Regional Weather Roundup
Issued by NWS Sioux Falls, SD

Home | Current Version | Previous Version | Graphics & Text | Print | Product List | Glossary On
Versions: 1 2 3 4 5 6 7 8 9 10 11 12 13 14 15 16 17 18 19 20 21 22 23 24 25 26 27 28 29 30 31 32 33 34 35 36 37 38 39 40 41 42 43 44 45 46 47 48 49 50
000
ASUS43 KFSD 240010
RWRFSD

WEATHER ROUNDUP FOR SE SOUTH DAKOTA/SW MINNESOTA/NW IOWA
NATIONAL WEATHER SERVICE SIOUX FALLS SD
700 PM CDT SUN APR 23 2017

NOTE: "FAIR" INDICATES FEW OR NO CLOUDS BELOW 12,000 FEET WITH NO
SIGNIFICANT WEATHER AND OR OBSTRUCTIONS TO VISIBILITY.


SDZ038>040-050-052>070-240100-
SOUTHEAST SOUTH DAKOTA

CITY           SKY/WX    TMP DP  RH WIND       PRES   REMARKS
BROOKINGS      SUNNY     69  31  24 SW14      29.79F
CHAMBERLAIN    SUNNY     74  32  21 SE21G28   29.69S
6HR MIN TEMP:  69; 6HR MAX TEMP:  77;

HURON          SUNNY     72  29  20 S15       29.71F
6HR MIN TEMP:  65; 6HR MAX TEMP:  74;

MADISON        FAIR      68  28  22 SW16G30   29.79F
MITCHELL       SUNNY     73  27  18 S15G25    29.73F
6HR MIN TEMP:  69; 6HR MAX TEMP:  74;

SIOUX FALLS    PTSUNNY   70  30  22 S17G25    29.80F
6HR MIN TEMP:  66; 6HR MAX TEMP:  71;

WINNER         FAIR      73  34  23 S18       29.69F
YANKTON        CLOUDY    72  27  18 S16G31    29.78F
$$

MNZ071-072-080-081-089-090-097-098-240100-
SOUTHWEST MINNESOTA

CITY           SKY/WX    TMP DP  RH WIND       PRES   REMARKS
FAIRMONT       MOSUNNY   70  28  21 SW16      29.89F
JACKSON        CLOUDY    68  27  21 S17G24    29.88F
LUVERNE        CLOUDY    70  21  16 S25       29.83F
MARSHALL       SUNNY     71  30  21 SW21      29.80F
6HR MIN TEMP:  67; 6HR MAX TEMP:  73;

MONTEVIDEO     SUNNY     72  30  21 SW14G22   29.80F
PIPESTONE      SUNNY     68  18  14 SW22      29.82F
REDWOOD FALLS  SUNNY     71  28  20 S18G28    29.82F
TRACY          SUNNY     70  32  24 S17G25    29.83F
WINDOM         SUNNY     70  25  18 S17       29.85F
WORTHINGTON    CLOUDY    69  28  21 S18G26    29.85F
$$

IAZ001>003-012>014-020>022-031-032-NEZ013-014-SDZ071-240100-
NORTHWEST IOWA

CITY           SKY/WX    TMP DP  RH WIND       PRES   REMARKS
CHEROKEE       CLOUDY    67  30  25 S15G24    29.88F
DENISON        MOSUNNY   68  28  22 S15G24    29.93F
ESTHERVILLE    CLOUDY    66  27  23 S21G29    29.89F
LE MARS        CLOUDY    70  28  21 S17G24    29.85F
ORANGE CITY    CLOUDY    68  32  26 S17G26    29.85F
SHELDON        CLOUDY    70  25  18 S21G28    29.84F
SIOUX CITY     MOSUNNY   71  26  18 S25       29.86F
6HR MIN TEMP:  70; 6HR MAX TEMP:  75;

SPENCER        PTSUNNY   68  28  22 MISG      29.89F
6HR MIN TEMP:  68; 6HR MAX TEMP:  72;

STORM LAKE     MOSUNNY   68  27  21 S21       29.89F
$$

ABBREVIATIONS USED IN REMARKS
   TC - TEMPERATURE IN CELSIUS
  WCI - WIND CHILL INDEX
   HX - HEAT INDEX
  VSB - VISIBILITY




USA.gov is the U.S. government's official web portal to all federal, state and local government web resources and services.